Location: Wildcat Hills Observatory
(41.6350°N, 103.6812°W)
Time: 16:39:54
(UTC-06:00)

Daily predictions for brighter satellites

Satellite Brightness Start Highest point End
(mag) Time Altitude Azimuth Time Altitude Azimuth Time Altitude Azimuth
Cosmos 2208 Rocket 4.4 19:49:15 10° SSW 19:54:35 75° WNW 20:00:02 10° NNE
Cosmos 2297 Rocket 2.2 19:49:32 10° NNW 19:55:13 74° ENE 20:00:51 10° SSE
USA 186 2.9 19:55:03 10° SE 19:57:20 21° ENE 19:59:31 10° NNE
Cosmos 2082 3.9 19:52:26 10° NNW 19:58:04 82° WSW 20:03:42 10° SSE
Cosmos 1626 Rocket 3.9 19:53:53 10° N 19:58:06 43° ENE 20:02:14 10° SSE
Meteor 2-15 Rocket 4.4 19:52:14 10° N 19:58:21 80° E 20:04:24 10° S
FengYun 1-2 T 4.3 19:52:48 10° SSE 19:58:24 72° ENE 20:03:59 10° N
Cosmos 220 Rocket 4.0 19:54:58 10° NNW 19:59:10 65° ENE 20:03:21 10° SSE
Cosmos 1821 Rocket 4.3 19:53:26 10° SSW 19:59:31 76° W 20:05:38 10° N
Cosmos 1892 Rocket 4.4 19:56:39 10° NNW 20:01:04 59° W 20:05:27 10° S
Cosmos 2298 Rocket 4.3 19:55:54 10° N 20:01:05 50° ENE 20:06:14 10° SE
Cosmos 1605 Rocket 4.0 19:56:36 10° S 20:02:51 68° E 20:09:02 10° NNE
Cosmos 1455 Rocket 3.2 19:58:33 10° S 20:02:53 84° W 20:07:17 10° N
Cosmos 1515 4.4 20:01:07 10° N 20:04:40 34° ENE 20:08:11 10° SE
ALOS 2.4 20:00:28 10° SSE 20:05:01 55° ENE 20:09:36 10° N
Meteor 1-5 Rocket 4.5 20:01:04 10° SSW 20:06:25 73° W 20:11:58 10° N
OAO 2 Rocket 4.1 20:03:21 10° WSW 20:07:58 39° S 20:12:34 10° ESE
Okean 2 4.3 20:04:05 10° NNW 20:08:09 53° W 20:12:11 10° S
Cosmos 1602 Rocket 3.7 20:04:27 10° N 20:08:50 58° E 20:13:10 10° SSE
Cosmos 1346 Rocket 3.7 20:08:28 10° NNW 20:12:20 53° W 20:16:14 10° S
ERS-1 Rocket 4.1 20:09:04 10° ESE 20:13:07 25° ENE 20:17:11 10° NNE
Helios 1B rocket 3.4 20:09:28 10° N 20:13:29 53° WNW 20:17:29 10° SSW
BREEZE-M DEB (TANK) 3.1 20:12:55 10° NW 20:14:41 22° NNE 20:17:14 10° E
Meteor 1-12 Rocket 4.3 20:13:02 10° S 20:18:47 79° E 20:24:40 10° NNE
Tiangong 1 1.0 20:16:09 10° W 20:19:16 74° SSW 20:21:38 16° ESE
Cosmos 1763 Rocket 4.2 20:20:15 10° SSE 20:24:38 30° E 20:29:01 10° NE
Cosmos 1743 3.7 20:21:32 10° SSE 20:24:52 27° E 20:28:13 10° NNE
Resurs 1-3 4.4 20:20:47 10° S 20:25:04 53° W 20:29:23 10° NNW
Cosmos 1939 Rocket 4.3 20:23:17 14° ESE 20:25:39 23° ENE 20:28:57 10° NNE
Cosmos 2150 Rocket 3.9 20:20:53 10° NNW 20:26:03 72° ENE 20:31:13 10° SSE
Cosmos 1697 Rocket 2.6 20:22:59 10° SSW 20:28:37 73° ESE 20:34:15 10° NNE
Cosmos 2061 Rocket 4.3 20:25:15 10° SSE 20:31:09 44° E 20:36:59 10° NNE
Cosmos 1066 Rocket 4.3 20:30:23 10° N 20:36:06 68° E 20:41:53 10° SSE
Cosmos 1898 Rocket 3.5 20:30:50 10° NNW 20:36:10 88° WSW 20:41:24 10° SSE
Cosmos 1459 Rocket 4.1 20:32:03 10° SSE 20:37:51 50° E 20:43:43 10° NNE
Cosmos 1606 Rocket 4.2 20:38:26 13° SSE 20:41:49 33° E 20:45:49 10° NNE
Cosmos 2058 Rocket 4.3 20:40:58 20° ESE 20:42:01 22° E 20:45:30 10° NE
SL-16 R/B 3.4 20:41:43 19° ESE 20:43:02 21° E 20:47:07 10° NE
Cosmos 468 Rocket 4.0 20:40:26 10° SSW 20:45:33 82° WNW 20:50:43 10° NNE
Cosmos 841 Rocket 3.7 20:44:53 10° S 20:49:52 45° ESE 20:54:49 10° NNE
ASTEX 1 4.4 20:46:38 10° NNE 20:50:48 26° E 20:51:52 24° ESE
RESURS DK-1 2.5 20:47:00 10° NNW 20:51:09 76° WSW 20:54:07 18° SSE
Cosmos 1980 Rocket 2.1 20:47:28 10° SSW 20:53:05 71° ESE 20:58:47 10° NNE
H-2A R/B 3.7 20:50:01 10° S 20:53:47 48° W 20:57:37 10° NNW
Resurs 01 Rocket 4.3 20:51:24 10° SW 20:54:40 20° W 20:57:58 10° NW
Cosmos 1814 Rocket 4.2 20:54:14 10° SSW 20:59:33 74° WNW 21:04:52 10° NNE
Cosmos 1842 4.0 20:59:25 10° NNE 21:02:58 33° ENE 21:03:13 32° E
Cosmos 1726 Rocket 3.7 21:01:45 25° SSE 21:03:59 49° E 21:08:15 10° NNE
Cosmos 1666 3.3 21:04:41 35° E 21:04:41 35° E 21:07:59 10° NNE
YAOGAN 6 4.2 21:05:28 22° ENE 21:05:28 22° ENE 21:08:02 10° NNE
Cosmos 2263 Rocket 3.3 21:12:21 10° N 21:17:01 27° NE 21:18:16 24° ENE
Lacrosse 5 2.9 21:13:49 10° WNW 21:18:30 39° SW 21:21:09 22° S
Cosmos 1825 Rocket 3.7 21:14:33 10° NNW 21:18:58 74° W 21:21:21 26° S
SL-08 R/B 4.4 21:14:23 15° S 21:19:38 64° E 21:25:44 10° NNE
Cosmos 1340 2.8 21:17:25 10° NNW 21:21:13 72° W 21:22:27 40° S
Cosmos 1802 Rocket 4.1 21:18:14 10° S 21:24:39 82° W 21:31:08 10° N
SWAS 4.3 21:23:21 10° SSW 21:27:40 83° ESE 21:32:01 10° NNE
Cosmos 2322 Rocket 2.2 21:25:05 27° S 21:27:57 53° ESE 21:33:24 10° NNE
SPOT 5 2.9 21:27:02 48° ESE 21:28:03 59° ENE 21:32:42 10° N
Cosmos 2016 Rocket 3.9 21:23:04 10° S 21:29:12 89° WNW 21:35:27 10° N
Cosmos 1953 Rocket 3.7 21:26:51 10° NNW 21:31:19 75° W 21:32:54 40° S
Cosmos 2228 3.4 21:32:39 46° ENE 21:32:39 46° ENE 21:36:07 10° NNE
Envisat 3.0 21:29:51 33° S 21:32:13 79° WSW 21:37:19 10° NNW
H-2A R/B 1.8 21:32:10 70° ESE 21:32:30 76° ENE 21:36:41 10° N
MetOp-A 4.1 21:33:26 48° SE 21:34:42 63° ENE 21:40:00 10° N
CZ-4 DEB 4.4 21:36:07 26° WSW 21:36:47 29° W 21:39:35 10° NW
Nimbus 7 Rocket 4.3 21:34:52 10° NNE 21:40:58 80° ESE 21:45:06 22° S
Terra 3.7 21:42:37 17° NE 21:42:37 17° NE 21:44:52 10° NNE
Meteor 2-9 Rocket 4.0 21:39:17 31° S 21:42:01 85° E 21:47:26 10° N
Meteor 2-5 Rocket 4.5 21:39:39 10° N 21:45:04 36° ENE 21:45:04 36° ENE
Cosmos 1375 Rocket 4.4 21:39:51 10° SSW 21:46:24 77° ESE 21:53:01 10° NE
Meteor 1-15 Rocket 4.2 21:44:38 34° S 21:47:21 83° E 21:53:13 10° NNE
Cosmos 1758 Rocket 4.1 21:45:18 10° NNW 21:49:32 54° W 21:50:24 45° SW
ERS-1 Rocket 4.1 21:48:48 21° SSW 21:51:41 39° W 21:56:23 10° NNW
Cosmos 405 Rocket 4.2 21:49:07 10° N 21:51:07 28° NNE 21:51:07 28° NNE
Tiangong 1 4.0 21:53:11 10° WSW 21:53:36 12° WSW 21:53:36 12° WSW
Cosmos 1864 Rocket 4.4 21:54:58 32° SSW 21:58:01 81° W 22:04:11 10° N
deb Chang Zheng 4 4.3 21:58:44 10° N 22:03:05 54° WNW 22:04:11 42° WSW
Cosmos 2346 Rocket 4.5 21:57:38 10° N 22:03:46 58° E 22:03:53 58° E
H-2A R/B 3.1 22:06:08 32° NE 22:06:08 32° NE 22:09:29 10° N
Meteor 2-17 Rocket 4.2 22:08:20 71° SSE 22:09:01 82° E 22:15:05 10° N
SL-08 RB Rocket 4.4 22:10:20 48° NNE 22:10:20 48° NNE 22:13:50 10° N
Cosmos 783 Rocket 4.5 22:11:46 76° NNE 22:11:46 76° NNE 22:16:39 10° NNE
Tsikada Rocket 4.3 22:06:56 10° NNW 22:13:17 65° W 22:15:15 44° SSW
ARGOS 3.1 22:20:35 80° NW 22:20:35 80° NW 22:25:45 10° NNW
Cosmos 1125 Rocket 4.3 22:19:26 10° NNW 22:24:22 44° WSW 22:24:35 44° WSW
SPOT 1/Viking Rocket 3.7 22:24:49 69° WNW 22:24:49 69° WNW 22:29:41 10° NNW
USA 215 3.9 22:24:24 39° ENE 22:25:52 45° NNE 22:32:01 10° NW
NOAA 11 4.2 22:26:06 74° W 22:26:06 74° W 22:31:23 10° NNW
SL-16 R/B 2.7 22:23:20 24° SW 22:26:39 56° WNW 22:32:15 10° NNE
Cosmos 1844 Rocket 4.3 22:23:35 10° N 22:27:15 22° NE 22:27:15 22° NE
Cosmos 540 Rocket 4.1 22:35:33 51° WNW 22:35:38 51° WNW 22:40:40 10° N
BREEZE-M DEB (TANK) 4.2 22:07:24 10° WNW 22:37:06 87° NNE 22:38:36 64° ESE
Cosmos 2360 Rocket 3.5 22:40:15 30° NNE 22:40:15 30° NNE 22:43:05 10° NNE
BREEZE-M DEB (TANK) 3.6 22:21:16 10° WNW 22:37:36 89° NNE 22:37:49 85° ESE
Cosmos 2263 Rocket 3.2 22:55:51 10° NW 22:59:58 40° WNW 22:59:58 40° WNW
Cosmos 2322 Rocket 4.2 23:07:47 10° WSW 23:12:18 24° NW 23:16:51 10° N
Terra 3.8 23:21:30 26° NW 23:21:30 26° NW 23:23:42 10° NNW
ATLAS 3B R/B 4.5 23:39:39 23° NE 23:39:39 23° NE 23:42:14 10° NE
H-2A R/B 4.3 23:46:46 18° NW 23:46:46 18° NW 23:48:33 10° NW
COSMOS 2428 4.5 23:48:39 26° NNE 23:48:39 26° NNE 23:51:05 10° NNE
